[[{"header":{"parameterUnit":"m.s-1","parameterCategory":1,"la1":30.2991,"la2":30.254,"lo1":-89.0895,"lo2":-89.0444,"dy":0.0017,"dx":0.0017,"nx":28,"ny":28,"refTime":"2025-04-04T03:00:00:Z","depth":0,"parameterNumber":2,"parameterNumberName":"U-component_of_WINDS"},"data":[0,0,0,0,0,0,0,0,0,0,0,0,0,0,0,0,0,0,0,0,0,0,0,0,0,0,0,0,0,0,0,0,0,0,0,0,0,0,0,0,0,0,0,0,0,0,0,0,0,0,0,0,0,0,0,0,0,0,-5.0487,-5.0487,0,-5.0575,-5.0576,-5.0577,-5.0564,-5.0563,-5.0561,-5.056,-5.0647,-5.0651,-5.0655,0,0,0,0,0,0,0,0,0,0,0,0,0,-5.0307,-5.031,-5.0486,-5.0488,-5.0489,-5.0574,-5.0576,-5.0577,-5.0564,-5.0563,-5.0561,-5.0559,-5.0646,-5.0651,-5.0655,0,0,0,0,0,0,0,0,0,0,0,0,0,-5.0389,-5.0311,-5.0486,-5.0493,-5.0494,-5.0574,-5.0576,-5.0577,-5.0565,-5.0563,-5.056,-5.0558,-5.0645,-5.065,-5.0656,-5.0733,0,0,-5.0673,-5.0675,0,0,0,0,0,0,0,0,-5.0384,-5.0395,-5.0491,-5.0493,-5.0494,-5.0556,-5.0544,-5.0629,-5.0565,-5.0538,-5.056,-5.0557,-5.0619,-5.0626,-5.0647,-5.0738,-5.0741,-5.0673,-5.0676,-5.0679,-5.068,0,0,0,0,0,0,0,-5.0378,-5.0391,-5.0521,-5.0492,-5.0494,-5.0491,-5.05,-5.056,-5.0589,-5.054,-5.054,-5.055,-5.0619,-5.0642,-5.0649,-5.0743,-5.0673,-5.0678,-5.0681,-5.0683,-5.0902,-5.0904,0,0,0,0,0,0,-5.0371,-5.0387,-5.0518,-5.0524,-5.0433,-5.0496,-5.0507,-5.0539,-5.0589,-5.0594,-5.0552,-5.0549,-5.0634,-5.0643,-5.0652,-5.0747,-5.0679,-5.0684,-5.0687,-5.09,-5.0903,-5.0905,0,0,0,0,0,0,-5.0367,-5.0383,-5.0515,-5.0455,-5.0472,-5.0502,-5.0538,-5.0541,-5.0564,-5.0598,-5.0603,-5.057,-5.0632,-5.0645,-5.0714,-5.0749,-5.0686,-5.0691,-5.0897,-5.09,-5.0904,-5.0936,0,0,0,0,0,0,-5.0362,-5.0382,-5.0411,-5.0456,-5.0475,-5.0575,-5.054,-5.0545,-5.0574,-5.0571,-5.0616,-5.0621,-5.0632,-5.0706,-5.0719,-5.0756,-5.0696,-5.0893,-5.0898,-5.0903,-5.0931,-5.094,-5.0947,0,0,0,0,0,-5.0356,-5.0416,-5.0413,-5.0429,-5.0513,-5.0577,-5.0588,-5.0599,-5.0577,-5.0607,-5.0629,-5.062,-5.0744,-5.0713,-5.0728,-5.0767,-5.0891,-5.0897,-5.0902,-5.0928,-5.0938,-5.0947,0,0,0,0,0,0,-5.0373,-5.0422,-5.0419,-5.0496,-5.0533,-5.0575,-5.0613,-5.061,-5.0653,-5.0648,-5.066,-5.067,-5.074,-5.0761,-5.0725,-5.0845,-5.0815,-5.0824,-5.0829,-5.0839,-5.0847,-5.0839,-5.07,0,0,0,0,0,-5.0386,-5.0435,-5.0475,-5.0538,-5.0557,-5.0582,-5.061,-5.0617,-5.0655,-5.067,-5.0696,-5.0733,-5.0781,-5.0811,-5.0857,-5.0936,-5.0945,-5.097,-5.0978,-5.0984,-5.0991,-5.1034,-5.1046,-5.0924,-5.0924,-5.0924,0,0,-5.0413,-5.0446,-5.0475,-5.0543,-5.0572,-5.0621,-5.0595,-5.0648,-5.0685,-5.0677,-5.0744,-5.0766,-5.0808,-5.0882,-5.0916,-5.0901,-5.1027,-5.0992,-5.0996,-5.0999,-5.1041,-5.1053,-5.1063,-5.0928,-5.0927,-5.0926,0,0,-5.0486,-5.0517,-5.0573,-5.0604,-5.0649,-5.0666,-5.068,-5.0723,-5.0737,-5.0805,-5.0801,-5.0845,-5.0927,-5.0957,-5.0983,-5.1072,-5.1064,-5.1087,-5.1126,-5.1168,-5.1178,-5.1186,-5.1217,-5.1228,-5.1094,-5.1094,-5.1094,0,-5.0513,-5.0588,-5.0602,-5.0657,-5.0686,-5.0685,-5.0741,-5.077,-5.0828,-5.0848,-5.0832,-5.0935,-5.0963,-5.1045,-5.1067,-5.1088,-5.1104,-5.108,-5.1176,-5.1184,-5.1193,-5.1222,-5.1233,-5.1096,-5.1096,-5.1095,-5.1095,0,-5.0618,-5.0671,-5.0711,-5.0768,-5.0803,-5.0858,-5.088,-5.0914,-5.0919,-5.0937,-5.1007,-5.1041,-5.1094,-5.1114,-5.1118,-5.1197,-5.1186,-5.1173,-5.1141,-5.1206,-5.1234,-5.1245,-5.1099,-5.1098,-5.1098,-5.1097,0,0,-5.0701,-5.0768,-5.0782,-5.0808,-5.086,-5.09,-5.0957,-5.1009,-5.1037,-5.1079,-5.1125,-5.1196,-5.1184,-5.1214,-5.1222,-5.1259,-5.1327,-5.1242,-5.1243,-5.1254,-5.1415,-5.1422,-5.1435,-5.1324,-5.1326,-5.1328,-5.141,0,-5.0778,-5.0877,-5.0893,-5.098,-5.1028,-5.1029,-5.1078,-5.1115,-5.1135,-5.1179,-5.1201,-5.125,-5.1232,-5.125,-5.1287,-5.131,-5.1358,-5.1305,-5.1366,-5.1368,-5.1352,-5.145,-5.1458,-5.1533,-5.1421,-5.1423,-5.1425,0,-5.0879,-5.0925,-5.1017,-5.1063,-5.1084,-5.1128,-5.1178,-5.1221,-5.1263,-5.1275,-5.131,-5.1314,-5.1372,-5.1342,-5.1422,-5.1385,-5.1412,-5.1427,-5.1431,-5.1434,-5.1398,-5.1454,-5.1558,-5.1569,-5.1442,-5.1441,-5.1439,0,-5.0928,-5.1012,-5.1079,-5.1101,-5.1158,-5.1188,-5.1213,-5.1254,-5.1285,-5.133,-5.135,-5.1401,-5.1428,-5.1467,-5.1485,-5.1461,-5.1563,-5.1534,-5.1574,-5.1573,-5.1592,-5.159,-5.17,-5.1614,-5.1614,-5.1614,-5.1613,0,-5.1011,-5.1066,-5.1101,-5.1141,-5.1205,-5.1224,-5.1285,-5.1309,-5.1346,-5.1391,-5.1396,-5.1437,-5.146,-5.1505,-5.152,-5.1584,-5.1597,-5.1607,-5.161,-5.1605,-5.1604,-5.162,-5.1614,-5.1617,-5.1616,-5.1615,-5.1615,0,-5.1074,-5.11,-5.1172,-5.1221,-5.1234,-5.1278,-5.132,-5.1359,-5.138,-5.1437,-5.1452,-5.1485,-5.1539,-5.1562,-5.1628,-5.1638,-5.171,-5.171,-5.1696,-5.1696,-5.1734,-5.1729,-5.1856,-5.1873,-5.1778,-5.1779,-5.1779,0,-5.1123,-5.1166,-5.1221,-5.1252,-5.1278,-5.1328,-5.136,-5.1382,-5.1415,-5.1469,-5.1502,-5.1556,-5.16,-5.1687,-5.1716,-5.1767,-5.1767,-5.1808,-5.1774,-5.1768,-5.1765,-5.1761,-5.1765,-5.1813,-5.1814,-5.1815,-5.1815,0,-5.1207,-5.1219,-5.1266,-5.1319,-5.1358,-5.14,-5.1441,-5.1466,-5.1494,-5.1532,-5.1588,-5.1623,-5.1692,-5.1745,-5.1799,-5.1824,-5.1824,-5.1827,-5.1838,-5.1832,-5.1821,-5.1826,-5.171,-5.1822,-5.1822,-5.1821,-5.1821,-5.1821,-5.1264,-5.1302,-5.1347,-5.14,-5.1434,-5.1473,-5.1513,-5.154,-5.1587,-5.1645,-5.1656,-5.1715,-5.1759,-5.183,-5.1858,-5.1905,-5.1895,-5.1912,-5.1915,-5.1919,-5.192,-5.1817,-5.1915,-5.1915,-5.1915,-5.1915,-5.1915,0,-5.1346,-5.1376,-5.1425,-5.1483,-5.1525,-5.1525,-5.1571,-5.1606,-5.1658,-5.17,-5.1744,-5.1809,-5.1862,-5.1897,-5.1951,-5.1981,-5.1983,-5.1995,-5.1991,-5.1997,-5.1927,-5.1911,-5.1993,-5.1993,-5.1993,-5.1992,-5.1992,-5.1992,-5.1394,-5.1459,-5.1477,-5.156,-5.1589,-5.1648,-5.1674,-5.1711,-5.1744,-5.1816,-5.1861,-5.1884,-5.1923,-5.198,-5.2029,-5.2038,-5.2056,-5.2068,-5.2076,-5.201,-5.2002,-5.1994,-5.1978,-5.2073,-5.2073,-5.2142,-5.2142,-5.2143]},{"header":{"parameterUnit":"m.s-1","parameterCategory":1,"la1":30.2991,"la2":30.254,"lo1":-89.0895,"lo2":-89.0444,"dy":0.0017,"dx":0.0017,"nx":28,"ny":28,"refTime":"2025-04-04T03:00:00:Z","depth":0,"parameterNumber":3,"parameterNumberName":"V-component_of_WINDS"},"data":[0,0,0,0,0,0,0,0,0,0,0,0,0,0,0,0,0,0,0,0,0,0,0,0,0,0,0,0,0,0,0,0,0,0,0,0,0,0,0,0,0,0,0,0,0,0,0,0,0,0,0,0,0,0,0,0,0,0,3.0333,3.0333,0,3.0333,3.0333,3.0333,3.0377,3.0379,3.038,3.0381,3.0378,3.0377,3.0376,0,0,0,0,0,0,0,0,0,0,0,0,0,3.0371,3.037,3.0333,3.0333,3.0333,3.0333,3.0333,3.0333,3.0377,3.0379,3.038,3.0381,3.0379,3.0377,3.0376,0,0,0,0,0,0,0,0,0,0,0,0,0,3.0361,3.0369,3.0333,3.0355,3.0357,3.0333,3.0333,3.0333,3.0377,3.0379,3.038,3.0382,3.0379,3.0377,3.0376,3.033,0,0,3.037,3.037,0,0,0,0,0,0,0,0,3.0361,3.0359,3.0352,3.0354,3.0356,3.0357,3.0346,3.0332,3.0376,3.0369,3.0381,3.0383,3.037,3.0369,3.0365,3.033,3.033,3.037,3.0369,3.0368,3.0368,0,0,0,0,0,0,0,3.0362,3.036,3.0333,3.0352,3.0354,3.0365,3.0366,3.0343,3.036,3.037,3.0373,3.0373,3.0371,3.0366,3.0365,3.033,3.037,3.0369,3.0368,3.0367,3.0261,3.026,0,0,0,0,0,0,3.036,3.036,3.0333,3.0333,3.0363,3.0363,3.0363,3.0355,3.036,3.0362,3.0371,3.0375,3.0369,3.0367,3.0365,3.0315,3.0368,3.0367,3.0366,3.0263,3.0261,3.0259,0,0,0,0,0,0,3.036,3.0357,3.0333,3.0347,3.0345,3.036,3.035,3.0354,3.035,3.0361,3.0364,3.0364,3.037,3.0368,3.034,3.0315,3.0366,3.0364,3.0265,3.0262,3.026,3.0212,0,0,0,0,0,0,3.0361,3.0357,3.0339,3.0347,3.0344,3.0307,3.0349,3.0353,3.0347,3.0351,3.0355,3.0357,3.0371,3.0342,3.0338,3.0314,3.0363,3.0267,3.0264,3.0261,3.0216,3.0208,3.0202,0,0,0,0,0,3.0362,3.0325,3.0338,3.0335,3.0323,3.0306,3.0304,3.0322,3.0345,3.0328,3.0336,3.0357,3.0319,3.0339,3.0334,3.031,3.0269,3.0265,3.0261,3.0219,3.021,3.0202,0,0,0,0,0,0,3.0312,3.0326,3.0341,3.0305,3.0304,3.0313,3.0292,3.0311,3.0303,3.0308,3.033,3.033,3.0299,3.0301,3.0324,3.0268,3.0298,3.0293,3.0267,3.0258,3.0251,3.0252,3.0362,0,0,0,0,0,3.0297,3.0282,3.0295,3.0261,3.0261,3.0276,3.0269,3.0284,3.0284,3.0283,3.0289,3.0287,3.0276,3.0267,3.0256,3.0217,3.0219,3.0198,3.019,3.0184,3.018,3.0162,3.0154,3.0246,3.0246,3.0246,0,0,3.0265,3.0271,3.026,3.0252,3.0253,3.0238,3.0276,3.0257,3.0246,3.028,3.0255,3.0259,3.0259,3.0226,3.0211,3.0227,3.0155,3.0179,3.0174,3.0173,3.0157,3.0149,3.0141,3.0243,3.0244,3.0244,0,0,3.02,3.0202,3.0176,3.0177,3.018,3.0191,3.0185,3.0192,3.0197,3.0172,3.0198,3.0185,3.0163,3.0164,3.016,3.0099,3.0119,3.0095,3.0057,3.004,3.0033,3.0026,3.0007,2.9999,3.009,3.009,3.009,0,3.016,3.0138,3.016,3.0141,3.0138,3.0169,3.0144,3.0144,3.0142,3.0139,3.0156,3.0132,3.0134,3.0103,3.0088,3.0084,3.0079,3.0095,3.0032,3.0026,3.002,3.0002,2.9994,3.0087,3.0088,3.0088,3.0088,0,3.0091,3.0075,3.0054,3.0054,3.0048,3.0026,3.0044,3.0036,3.0051,3.0061,3.0037,3.0041,3.0033,3.0027,3.004,2.9998,3.0008,3.0028,3.0059,3.0008,2.9992,2.9984,3.0083,3.0084,3.0085,3.0086,0,0,2.9992,3.0007,2.9999,3.0001,3.0007,2.9996,2.9975,2.997,2.9963,2.9961,2.9946,2.9928,2.9948,2.9945,2.9959,2.9944,2.9898,2.9966,2.9967,2.9955,2.9855,2.9841,2.9832,2.9911,2.991,2.9909,2.9856,0,2.9931,2.9899,2.9919,2.9883,2.9871,2.9903,2.9886,2.9888,2.9897,2.9888,2.9898,2.9887,2.9912,2.9911,2.9897,2.9907,2.9879,2.9911,2.9898,2.9898,2.9899,2.9823,2.9807,2.9757,2.9849,2.9848,2.9847,0,2.9855,2.9853,2.9817,2.9829,2.9824,2.9809,2.9807,2.9797,2.9801,2.9809,2.9807,2.9827,2.9809,2.9839,2.9816,2.9837,2.9833,2.9837,2.9836,2.9836,2.987,2.9823,2.9741,2.9734,2.9836,2.9837,2.9838,0,2.979,2.9777,2.9755,2.9755,2.9768,2.9757,2.9762,2.9767,2.9764,2.9762,2.976,2.9755,2.9753,2.9749,2.9767,2.9787,2.9742,2.9773,2.9749,2.9748,2.9738,2.9739,2.9656,2.9733,2.9733,2.9733,2.9734,0,2.972,2.9697,2.9727,2.9713,2.969,2.9713,2.9689,2.9697,2.9703,2.9692,2.9718,2.9707,2.973,2.9722,2.9736,2.9716,2.9714,2.972,2.9724,2.9719,2.9718,2.9717,2.9722,2.9731,2.9732,2.9732,2.9733,0,2.9643,2.9662,2.9641,2.9656,2.9659,2.9641,2.9654,2.9642,2.9654,2.964,2.9638,2.9657,2.9649,2.9666,2.966,2.9669,2.9642,2.965,2.9641,2.9644,2.962,2.9623,2.9535,2.9526,2.9607,2.9606,2.9605,0,2.9599,2.9583,2.9597,2.9592,2.9596,2.9588,2.9585,2.9609,2.9605,2.961,2.9598,2.9593,2.959,2.9576,2.9588,2.9584,2.9594,2.9564,2.9594,2.959,2.9596,2.9598,2.9597,2.9558,2.9557,2.9556,2.9555,0,2.9518,2.9529,2.9525,2.9524,2.9521,2.9521,2.9523,2.9518,2.9543,2.9538,2.9531,2.9529,2.9524,2.9519,2.9518,2.9523,2.9544,2.9546,2.9541,2.9535,2.9531,2.9536,2.9626,2.9548,2.9548,2.9549,2.9549,2.955,2.9457,2.9446,2.9455,2.9451,2.9455,2.9457,2.9449,2.9461,2.9456,2.9455,2.9469,2.946,2.9467,2.9469,2.9472,2.9465,2.9479,2.947,2.9468,2.9466,2.9464,2.9532,2.9465,2.9465,2.9465,2.9465,2.9465,0,2.938,2.9389,2.9384,2.9388,2.9385,2.9406,2.941,2.9406,2.9398,2.9403,2.9401,2.9394,2.939,2.9404,2.9402,2.9394,2.9404,2.9393,2.9394,2.9396,2.945,2.9456,2.9385,2.9386,2.9386,2.9386,2.9386,2.9386,2.934,2.9323,2.9335,2.9321,2.9329,2.9322,2.9323,2.9326,2.9331,2.9323,2.9321,2.933,2.9339,2.9338,2.9336,2.934,2.9339,2.9325,2.9333,2.9384,2.9391,2.9399,2.9405,2.9324,2.9324,2.9279,2.9279,2.9279]}]]